Вернуться в каталог

STARLINK-4585

АктивенСвязьVLEO
NORAD 53567·PAYLOAD·🇺🇸 United States

Запущен Aug 19, 2022 с Cape Canaveral Space Force Station

Loading…

Ближайшие Пролёты (ближайшие 24 часа)

TLE

СвежийSource: CelesTrak SupGP

Эпоха: Sep 14, 2026, 21:11 UTC

1 53567C 22101AS  26257.88312500  .00041886  00000+0  13471-2 0  2572
2 53567  53.1564 276.0466 0001176  83.3258 252.2935 15.31676194    19

Отслеживайте STARLINK-4585 в реальном времени с AllMySat

Download on the App Store